Time,TemperatureF,DewpointF,PressureIn,WindDirection,WindDirectionDegrees,WindSpeedMPH,WindSpeedGustMPH,Humidity,HourlyPrecipIn,Conditions,Clouds,dailyrainin,SoftwareType,DateUTC
2013-02-19 00:00:00,35.8,18.5,29.95,NNW,338,1.0,1.0,49,0.00,,,0.03,Wunderground v.1.15,2013-02-19 05:00:00,
2013-02-19 00:05:00,35.9,18.6,29.94,North,360,1.0,1.0,49,0.00,,,0.00,Wunderground v.1.15,2013-02-19 05:05:00,
2013-02-19 00:10:00,36.0,18.2,29.94,SE,135,1.0,1.0,48,0.00,,,0.00,Wunderground v.1.15,2013-02-19 05:10:00,
2013-02-19 00:20:00,35.9,18.6,29.94,NE,39,1.0,1.0,49,0.00,,,0.00,Wunderground v.1.15,2013-02-19 05:20:00,
2013-02-19 00:25:00,35.8,19.4,29.93,North,351,1.0,4.0,51,0.00,,,0.00,Wunderground v.1.15,2013-02-19 05:25:00,
2013-02-19 00:30:00,35.5,18.7,29.93,NNW,337,1.0,1.0,50,0.00,,,0.00,Wunderground v.1.15,2013-02-19 05:30:00,
2013-02-19 00:40:00,35.6,19.2,29.93,NE,51,1.0,1.0,51,0.00,,,0.00,Wunderground v.1.15,2013-02-19 05:40:00,
2013-02-19 00:50:00,35.5,19.1,29.92,NE,41,0.0,0.0,51,0.00,,,0.00,Wunderground v.1.15,2013-02-19 05:50:00,
2013-02-19 00:55:00,35.3,19.0,29.92,SW,219,1.0,3.0,51,0.00,,,0.00,Wunderground v.1.15,2013-02-19 05:55:00,
2013-02-19 01:05:00,35.5,18.2,29.91,West,259,1.0,1.0,49,0.00,,,0.00,Wunderground v.1.15,2013-02-19 06:05:00,
2013-02-19 01:10:00,35.3,18.5,29.91,ENE,62,1.0,1.0,50,0.00,,,0.00,Wunderground v.1.15,2013-02-19 06:10:00,
2013-02-19 01:20:00,34.9,18.6,29.91,North,360,1.0,1.0,51,0.00,,,0.00,Wunderground v.1.15,2013-02-19 06:20:00,
2013-02-19 01:30:00,34.1,19.2,29.90,NNE,28,0.0,0.0,54,0.00,,,0.00,Wunderground v.1.15,2013-02-19 06:30:00,
2013-02-19 01:40:00,33.7,18.4,29.89,NNE,22,0.0,0.0,53,0.00,,,0.00,Wunderground v.1.15,2013-02-19 06:40:00,
2013-02-19 01:45:00,33.5,18.6,29.87,NNE,22,0.0,0.0,54,0.00,,,0.00,Wunderground v.1.15,2013-02-19 06:45:00,
2013-02-19 01:55:00,33.2,19.2,29.87,NNE,22,0.0,0.0,56,0.00,,,0.00,Wunderground v.1.15,2013-02-19 06:55:00,
2013-02-19 02:00:00,33.2,18.8,29.86,NNE,22,0.0,0.0,55,0.00,,,0.00,Wunderground v.1.15,2013-02-19 07:00:00,
2013-02-19 02:10:00,33.5,19.5,29.86,NNE,22,0.0,0.0,56,0.00,,,0.00,Wunderground v.1.15,2013-02-19 07:10:00,
2013-02-19 02:20:00,33.8,19.7,29.87,NE,51,0.0,4.0,56,0.00,,,0.00,Wunderground v.1.15,2013-02-19 07:20:00,
2013-02-19 02:30:00,34.4,19.5,29.86,NNE,16,1.0,1.0,54,0.00,,,0.00,Wunderground v.1.15,2013-02-19 07:30:00,
2013-02-19 02:40:00,34.7,18.9,29.85,NNE,16,0.0,0.0,52,0.00,,,0.00,Wunderground v.1.15,2013-02-19 07:40:00,
2013-02-19 02:50:00,35.0,19.1,29.85,NE,38,1.0,2.0,52,0.00,,,0.00,Wunderground v.1.15,2013-02-19 07:50:00,
2013-02-19 03:00:00,35.0,19.6,29.85,SSW,193,1.0,1.0,53,0.00,,,0.00,Wunderground v.1.15,2013-02-19 08:00:00,
2013-02-19 03:10:00,35.2,19.8,29.85,ENE,71,1.0,1.0,53,0.00,,,0.00,Wunderground v.1.15,2013-02-19 08:10:00,
2013-02-19 03:15:00,35.3,20.3,29.86,NE,39,1.0,1.0,54,0.00,,,0.00,Wunderground v.1.15,2013-02-19 08:15:00,
2013-02-19 03:25:00,35.3,20.7,29.86,NNW,345,1.0,1.0,55,0.00,,,0.00,Wunderground v.1.15,2013-02-19 08:25:00,
2013-02-19 03:30:00,35.3,21.2,29.87,NNE,14,0.0,5.0,56,0.00,,,0.00,Wunderground v.1.15,2013-02-19 08:30:00,
2013-02-19 03:40:00,35.6,21.9,29.86,SSW,213,1.0,1.0,57,0.00,,,0.00,Wunderground v.1.15,2013-02-19 08:40:00,
2013-02-19 03:50:00,35.6,22.3,29.86,NW,319,1.0,1.0,58,0.00,,,0.00,Wunderground v.1.15,2013-02-19 08:50:00,
2013-02-19 04:00:00,35.5,23.0,29.84,SW,230,1.0,1.0,60,0.00,,,0.00,Wunderground v.1.15,2013-02-19 09:00:00,
2013-02-19 04:10:00,35.6,23.5,29.84,West,275,1.0,2.0,61,0.00,,,0.00,Wunderground v.1.15,2013-02-19 09:10:00,
2013-02-19 04:20:00,35.5,24.1,29.83,West,273,1.0,1.0,63,0.00,,,0.00,Wunderground v.1.15,2013-02-19 09:20:00,
2013-02-19 04:30:00,35.5,24.1,29.82,WNW,288,1.0,1.0,63,0.00,,,0.00,Wunderground v.1.15,2013-02-19 09:30:00,
2013-02-19 04:40:00,35.5,23.8,29.84,North,350,0.0,2.0,62,0.00,,,0.00,Wunderground v.1.15,2013-02-19 09:40:00,
2013-02-19 04:45:00,35.6,23.9,29.84,NW,311,1.0,2.0,62,0.00,,,0.00,Wunderground v.1.15,2013-02-19 09:45:00,
2013-02-19 04:55:00,35.6,24.2,29.84,NE,38,1.0,4.0,63,0.00,,,0.00,Wunderground v.1.15,2013-02-19 09:55:00,
2013-02-19 05:00:00,35.5,24.5,29.84,NE,51,1.0,1.0,64,0.00,,,0.00,Wunderground v.1.15,2013-02-19 10:00:00,
2013-02-19 05:10:00,35.3,25.8,29.86,North,5,1.0,1.0,68,0.00,,,0.00,Wunderground v.1.15,2013-02-19 10:10:00,
2013-02-19 05:20:00,34.9,27.5,29.86,NW,317,0.0,1.0,74,0.00,,,0.00,Wunderground v.1.15,2013-02-19 10:20:00,
2013-02-19 05:30:00,34.1,28.3,29.86,NW,304,0.0,0.0,79,0.00,,,0.00,Wunderground v.1.15,2013-02-19 10:30:00,
2013-02-19 05:35:00,33.7,28.5,29.86,NW,304,0.0,0.0,81,0.00,,,0.00,Wunderground v.1.15,2013-02-19 10:35:00,
2013-02-19 05:45:00,33.2,29.2,29.85,WNW,292,0.0,1.0,85,0.00,,,0.00,Wunderground v.1.15,2013-02-19 10:45:00,
2013-02-19 05:50:00,33.1,29.1,29.85,WNW,292,0.0,0.0,85,0.00,,,0.00,Wunderground v.1.15,2013-02-19 10:50:00,
2013-02-19 06:00:00,32.8,29.4,29.85,WNW,292,0.0,0.0,87,0.00,,,0.00,Wunderground v.1.15,2013-02-19 11:00:00,
2013-02-19 06:10:00,32.7,29.5,29.85,North,9,0.0,0.0,88,0.00,,,0.00,Wunderground v.1.15,2013-02-19 11:10:00,
2013-02-19 06:20:00,32.5,29.6,29.85,NNE,15,0.0,0.0,89,0.00,,,0.00,Wunderground v.1.15,2013-02-19 11:20:00,
2013-02-19 06:30:00,32.5,29.6,29.85,NNW,328,0.0,0.0,89,0.00,,,0.00,Wunderground v.1.15,2013-02-19 11:30:00,
2013-02-19 06:40:00,32.7,30.1,29.85,NNE,13,0.0,0.0,90,0.00,,,0.00,Wunderground v.1.15,2013-02-19 11:40:00,
2013-02-19 06:45:00,32.7,30.4,29.85,WSW,248,0.0,0.0,91,0.00,,,0.00,Wunderground v.1.15,2013-02-19 11:45:00,
2013-02-19 06:55:00,32.7,30.4,29.84,NNE,28,0.0,0.0,91,0.00,,,0.00,Wunderground v.1.15,2013-02-19 11:55:00,
2013-02-19 07:05:00,32.7,30.4,29.84,North,5,0.0,0.0,91,0.00,,,0.00,Wunderground v.1.15,2013-02-19 12:05:00,
2013-02-19 07:10:00,32.7,30.4,29.84,North,5,0.0,0.0,91,0.00,,,0.00,Wunderground v.1.15,2013-02-19 12:10:00,
2013-02-19 07:20:00,32.7,30.6,29.84,North,5,0.0,0.0,92,0.00,,,0.00,Wunderground v.1.15,2013-02-19 12:20:00,
2013-02-19 07:30:00,32.7,30.6,29.83,WNW,291,0.0,0.0,92,0.00,,,0.00,Wunderground v.1.15,2013-02-19 12:30:00,
2013-02-19 07:35:00,32.7,30.6,29.83,WNW,298,0.0,0.0,92,0.00,,,0.00,Wunderground v.1.15,2013-02-19 12:35:00,
2013-02-19 07:45:00,32.5,30.4,29.83,North,350,0.0,0.0,92,0.00,,,0.00,Wunderground v.1.15,2013-02-19 12:45:00,
2013-02-19 07:55:00,32.5,30.4,29.82,NNE,18,0.0,0.0,92,0.00,,,0.00,Wunderground v.1.15,2013-02-19 12:55:00,
2013-02-19 08:00:00,32.5,30.7,29.81,North,5,0.0,0.0,93,0.00,,,0.00,Wunderground v.1.15,2013-02-19 13:00:00,
2013-02-19 08:10:00,32.7,30.9,29.81,SW,223,0.0,0.0,93,0.00,,,0.00,Wunderground v.1.15,2013-02-19 13:10:00,
2013-02-19 08:20:00,32.7,30.9,29.80,NW,309,0.0,0.0,93,0.00,,,0.00,Wunderground v.1.15,2013-02-19 13:20:00,
2013-02-19 08:30:00,32.7,30.9,29.81,North,355,0.0,0.0,93,0.00,,,0.00,Wunderground v.1.15,2013-02-19 13:30:00,
2013-02-19 08:40:00,32.7,30.9,29.81,SW,214,0.0,0.0,93,0.00,,,0.00,Wunderground v.1.15,2013-02-19 13:40:00,
2013-02-19 08:50:00,32.7,31.2,29.80,North,350,0.0,0.0,94,0.00,,,0.00,Wunderground v.1.15,2013-02-19 13:50:00,
2013-02-19 09:00:00,32.7,31.2,29.80,North,5,0.0,0.0,94,0.00,,,0.00,Wunderground v.1.15,2013-02-19 14:00:00,
2013-02-19 09:10:00,32.8,31.3,29.81,NW,320,0.0,0.0,94,0.00,,,0.00,Wunderground v.1.15,2013-02-19 14:10:00,
2013-02-19 09:20:00,32.8,31.3,29.80,NE,44,0.0,0.0,94,0.00,,,0.00,Wunderground v.1.15,2013-02-19 14:20:00,
2013-02-19 09:30:00,32.9,31.4,29.81,NE,56,0.0,0.0,94,0.00,,,0.00,Wunderground v.1.15,2013-02-19 14:30:00,
2013-02-19 09:35:00,32.9,31.4,29.80,ENE,60,0.0,0.0,94,0.00,,,0.00,Wunderground v.1.15,2013-02-19 14:35:00,
2013-02-19 09:45:00,33.1,31.6,29.80,NNE,28,0.0,0.0,94,0.00,,,0.00,Wunderground v.1.15,2013-02-19 14:45:00,
2013-02-19 09:50:00,33.2,31.7,29.80,WNW,290,0.0,0.0,94,0.00,,,0.00,Wunderground v.1.15,2013-02-19 14:50:00,
2013-02-19 10:00:00,33.2,31.7,29.79,NE,50,1.0,1.0,94,0.00,,,0.00,Wunderground v.1.15,2013-02-19 15:00:00,
2013-02-19 10:10:00,33.2,31.9,29.80,NE,38,1.0,1.0,95,0.00,,,0.00,Wunderground v.1.15,2013-02-19 15:10:00,
2013-02-19 10:20:00,33.8,32.5,29.79,NW,304,1.0,1.0,95,0.00,,,0.00,Wunderground v.1.15,2013-02-19 15:20:00,
2013-02-19 10:30:00,34.3,33.0,29.79,NW,318,0.0,1.0,95,0.00,,,0.00,Wunderground v.1.15,2013-02-19 15:30:00,
2013-02-19 10:40:00,34.6,33.3,29.78,NNE,17,1.0,1.0,95,0.00,,,0.00,Wunderground v.1.15,2013-02-19 15:40:00,
2013-02-19 10:50:00,34.9,33.6,29.79,West,273,1.0,3.0,95,0.00,,,0.00,Wunderground v.1.15,2013-02-19 15:50:00,
2013-02-19 10:55:00,35.2,33.9,29.78,SW,219,1.0,4.0,95,0.00,,,0.00,Wunderground v.1.15,2013-02-19 15:55:00,
2013-02-19 11:05:00,35.5,34.2,29.78,NNW,346,1.0,2.0,95,0.00,,,0.00,Wunderground v.1.15,2013-02-19 16:05:00,
2013-02-19 11:15:00,35.6,34.3,29.78,West,274,1.0,2.0,95,0.00,,,0.00,Wunderground v.1.15,2013-02-19 16:15:00,
2013-02-19 11:20:00,35.8,34.5,29.78,West,263,2.0,2.0,95,0.00,,,0.00,Wunderground v.1.15,2013-02-19 16:20:00,
2013-02-19 11:30:00,36.5,35.5,29.77,West,275,1.0,2.0,96,0.00,,,0.00,Wunderground v.1.15,2013-02-19 16:30:00,
2013-02-19 11:40:00,37.3,36.3,29.76,West,264,1.0,1.0,96,0.00,,,0.00,Wunderground v.1.15,2013-02-19 16:40:00,
2013-02-19 11:50:00,38.0,37.0,29.75,WNW,294,1.0,1.0,96,0.00,,,0.00,Wunderground v.1.15,2013-02-19 16:50:00,
2013-02-19 11:55:00,38.5,37.5,29.75,SW,218,1.0,1.0,96,0.31,,,0.03,Wunderground v.1.15,2013-02-19 16:55:00,
2013-02-19 12:05:00,39.3,38.3,29.74,West,267,1.0,3.0,96,0.22,,,0.07,Wunderground v.1.15,2013-02-19 17:05:00,
2013-02-19 12:15:00,40.3,39.3,29.74,West,263,2.0,2.0,96,0.23,,,0.11,Wunderground v.1.15,2013-02-19 17:15:00,
2013-02-19 12:20:00,40.9,39.6,29.73,NW,304,2.0,2.0,95,0.23,,,0.13,Wunderground v.1.15,2013-02-19 17:20:00,
2013-02-19 12:30:00,41.2,38.8,29.73,WNW,303,2.0,2.0,91,0.19,,,0.16,Wunderground v.1.15,2013-02-19 17:30:00,
2013-02-19 12:40:00,42.2,38.0,29.71,West,271,3.0,5.0,85,0.19,,,0.19,Wunderground v.1.15,2013-02-19 17:40:00,
2013-02-19 12:45:00,42.5,37.1,29.71,West,267,3.0,7.0,81,0.17,,,0.21,Wunderground v.1.15,2013-02-19 17:45:00,
2013-02-19 12:55:00,43.5,36.1,29.70,WNW,297,3.0,3.0,75,0.11,,,0.23,Wunderground v.1.15,2013-02-19 17:55:00,
2013-02-19 13:05:00,44.3,35.8,29.71,West,274,3.0,3.0,72,0.12,,,0.24,Wunderground v.1.15,2013-02-19 18:05:00,
2013-02-19 13:10:00,44.6,35.8,29.70,West,267,3.0,4.0,71,0.11,,,0.25,Wunderground v.1.15,2013-02-19 18:10:00,
2013-02-19 13:20:00,45.2,36.0,29.70,WSW,258,3.0,3.0,70,0.09,,,0.27,Wunderground v.1.15,2013-02-19 18:20:00,
2013-02-19 13:30:00,45.1,34.8,29.69,NNW,333,3.0,3.0,67,0.07,,,0.28,Wunderground v.1.15,2013-02-19 18:30:00,
2013-02-19 13:40:00,44.6,34.3,29.69,WSW,256,3.0,6.0,67,0.06,,,0.29,Wunderground v.1.15,2013-02-19 18:40:00,
2013-02-19 13:50:00,45.7,35.0,29.69,NW,321,2.0,2.0,66,0.04,,,0.29,Wunderground v.1.15,2013-02-19 18:50:00,
2013-02-19 13:55:00,45.7,34.6,29.69,North,5,2.0,2.0,65,0.00,,,0.30,Wunderground v.1.15,2013-02-19 18:55:00,
2013-02-19 14:05:00,45.1,33.2,29.68,WSW,253,3.0,6.0,63,0.00,,,0.30,Wunderground v.1.15,2013-02-19 19:05:00,
2013-02-19 14:15:00,45.1,33.6,29.68,NNE,15,3.0,3.0,64,0.00,,,0.30,Wunderground v.1.15,2013-02-19 19:15:00,
2013-02-19 14:20:00,44.6,31.6,29.67,WSW,258,3.0,6.0,60,0.00,,,0.30,Wunderground v.1.15,2013-02-19 19:20:00,
2013-02-19 14:30:00,44.8,32.6,29.67,South,190,2.0,2.0,62,0.00,,,0.30,Wunderground v.1.15,2013-02-19 19:30:00,
2013-02-19 14:40:00,45.8,31.9,29.67,WSW,257,2.0,3.0,58,0.00,,,0.30,Wunderground v.1.15,2013-02-19 19:40:00,
2013-02-19 14:50:00,46.4,31.5,29.67,NNW,331,2.0,2.0,56,0.00,,,0.30,Wunderground v.1.15,2013-02-19 19:50:00,
2013-02-19 15:00:00,46.2,28.6,29.67,West,272,5.0,10.0,50,0.00,,,0.30,Wunderground v.1.15,2013-02-19 20:00:00,
2013-02-19 15:10:00,46.7,22.4,29.66,WSW,255,6.0,17.0,38,0.00,,,0.30,Wunderground v.1.15,2013-02-19 20:10:00,
2013-02-19 15:20:00,46.8,22.5,29.66,NW,323,6.0,6.0,38,0.00,,,0.30,Wunderground v.1.15,2013-02-19 20:20:00,
2013-02-19 15:25:00,46.8,20.6,29.66,West,263,7.0,10.0,35,0.00,,,0.30,Wunderground v.1.15,2013-02-19 20:25:00,
2013-02-19 15:30:00,46.8,23.1,29.66,West,267,7.0,7.0,39,0.00,,,0.30,Wunderground v.1.15,2013-02-19 20:30:00,
2013-02-19 15:40:00,47.3,22.3,29.66,West,269,5.0,5.0,37,0.00,,,0.30,Wunderground v.1.15,2013-02-19 20:40:00,
2013-02-19 15:50:00,47.9,24.7,29.66,West,281,4.0,4.0,40,0.00,,,0.30,Wunderground v.1.15,2013-02-19 20:50:00,
2013-02-19 16:00:00,47.7,22.7,29.66,NNE,21,4.0,4.0,37,0.00,,,0.30,Wunderground v.1.15,2013-02-19 21:00:00,
2013-02-19 16:10:00,48.3,22.5,29.67,NNE,19,2.0,3.0,36,0.00,,,0.30,Wunderground v.1.15,2013-02-19 21:10:00,
2013-02-19 16:20:00,48.2,21.8,29.67,NNE,22,3.0,4.0,35,0.00,,,0.30,Wunderground v.1.15,2013-02-19 21:20:00,
2013-02-19 16:25:00,47.9,21.5,29.67,NW,323,4.0,4.0,35,0.00,,,0.30,Wunderground v.1.15,2013-02-19 21:25:00,
2013-02-19 16:30:00,48.0,24.8,29.67,WSW,257,3.0,6.0,40,0.00,,,0.30,Wunderground v.1.15,2013-02-19 21:30:00,
2013-02-19 16:40:00,47.3,25.9,29.69,NNE,19,3.0,3.0,43,0.00,,,0.30,Wunderground v.1.15,2013-02-19 21:40:00,
2013-02-19 16:50:00,47.0,26.2,29.69,West,264,2.0,2.0,44,0.00,,,0.30,Wunderground v.1.15,2013-02-19 21:50:00,
2013-02-19 17:00:00,46.2,21.3,29.70,West,267,2.0,4.0,37,0.00,,,0.30,Wunderground v.1.15,2013-02-19 22:00:00,
2013-02-19 17:10:00,45.8,22.8,29.71,WSW,254,2.0,2.0,40,0.00,,,0.30,Wunderground v.1.15,2013-02-19 22:10:00,
2013-02-19 17:20:00,45.2,19.8,29.72,West,261,3.0,7.0,36,0.00,,,0.30,Wunderground v.1.15,2013-02-19 22:20:00,
2013-02-19 17:25:00,44.8,20.7,29.72,West,269,5.0,7.0,38,0.00,,,0.30,Wunderground v.1.15,2013-02-19 22:25:00,
2013-02-19 17:30:00,44.6,19.3,29.72,West,277,4.0,4.0,36,0.00,,,0.30,Wunderground v.1.15,2013-02-19 22:30:00,
2013-02-19 17:40:00,44.1,21.3,29.73,West,269,2.0,2.0,40,0.00,,,0.30,Wunderground v.1.15,2013-02-19 22:40:00,
2013-02-19 17:50:00,43.5,23.0,29.74,West,262,1.0,1.0,44,0.00,,,0.30,Wunderground v.1.15,2013-02-19 22:50:00,
2013-02-19 18:00:00,42.6,20.5,29.74,NW,313,2.0,2.0,41,0.00,,,0.30,Wunderground v.1.15,2013-02-19 23:00:00,
2013-02-19 18:10:00,41.8,18.6,29.75,WNW,282,4.0,4.0,39,0.00,,,0.30,Wunderground v.1.15,2013-02-19 23:10:00,
2013-02-19 18:20:00,41.1,14.1,29.75,West,267,4.0,5.0,33,0.00,,,0.30,Wunderground v.1.15,2013-02-19 23:20:00,
2013-02-19 18:30:00,40.5,12.2,29.76,North,350,4.0,4.0,31,0.00,,,0.30,Wunderground v.1.15,2013-02-19 23:30:00,
2013-02-19 18:40:00,40.1,13.3,29.77,North,360,3.0,3.0,33,0.00,,,0.30,Wunderground v.1.15,2013-02-19 23:40:00,
2013-02-19 18:50:00,39.9,11.7,29.77,West,263,3.0,3.0,31,0.00,,,0.30,Wunderground v.1.15,2013-02-19 23:50:00,
2013-02-19 19:00:00,39.5,9.0,29.78,West,266,4.0,4.0,28,0.00,,,0.30,Wunderground v.1.15,2013-02-20 00:00:00,
2013-02-19 19:10:00,39.2,10.3,29.78,WSW,242,3.0,4.0,30,0.00,,,0.30,Wunderground v.1.15,2013-02-20 00:10:00,
2013-02-19 19:20:00,38.8,10.0,29.79,ENE,64,4.0,4.0,30,0.00,,,0.30,Wunderground v.1.15,2013-02-20 00:20:00,
2013-02-19 19:30:00,38.9,13.5,29.79,West,273,3.0,3.0,35,0.00,,,0.30,Wunderground v.1.15,2013-02-20 00:30:00,
2013-02-19 19:40:00,38.6,12.6,29.80,WNW,292,2.0,2.0,34,0.00,,,0.30,Wunderground v.1.15,2013-02-20 00:40:00,
2013-02-19 19:50:00,38.0,11.4,29.80,West,264,2.0,2.0,33,0.00,,,0.30,Wunderground v.1.15,2013-02-20 00:50:00,
2013-02-19 20:00:00,37.6,11.7,29.80,WNW,294,2.0,2.0,34,0.00,,,0.30,Wunderground v.1.15,2013-02-20 01:00:00,
2013-02-19 20:10:00,37.3,10.8,29.80,West,262,3.0,3.0,33,0.00,,,0.30,Wunderground v.1.15,2013-02-20 01:10:00,
2013-02-19 20:20:00,36.9,10.4,29.80,West,281,2.0,4.0,33,0.00,,,0.30,Wunderground v.1.15,2013-02-20 01:20:00,
2013-02-19 20:25:00,36.8,9.7,29.80,NW,313,2.0,4.0,32,0.00,,,0.30,Wunderground v.1.15,2013-02-20 01:25:00,
2013-02-19 20:30:00,36.5,10.7,29.81,East,94,2.0,2.0,34,0.00,,,0.30,Wunderground v.1.15,2013-02-20 01:30:00,
2013-02-19 20:40:00,36.0,11.0,29.81,West,269,1.0,3.0,35,0.00,,,0.30,Wunderground v.1.15,2013-02-20 01:40:00,
2013-02-19 20:50:00,35.9,10.2,29.81,West,274,1.0,1.0,34,0.00,,,0.30,Wunderground v.1.15,2013-02-20 01:50:00,
2013-02-19 21:00:00,35.5,10.5,29.81,West,274,1.0,1.0,35,0.00,,,0.30,Wunderground v.1.15,2013-02-20 02:00:00,
2013-02-19 21:10:00,35.3,9.0,29.81,NNW,341,2.0,2.0,33,0.00,,,0.30,Wunderground v.1.15,2013-02-20 02:10:00,
2013-02-19 21:20:00,35.0,8.7,29.81,West,274,1.0,2.0,33,0.00,,,0.30,Wunderground v.1.15,2013-02-20 02:20:00,
2013-02-19 21:30:00,35.0,8.1,29.82,West,269,3.0,6.0,32,0.00,,,0.30,Wunderground v.1.15,2013-02-20 02:30:00,
2013-02-19 21:40:00,35.0,5.1,29.82,WSW,252,3.0,3.0,28,0.00,,,0.30,Wunderground v.1.15,2013-02-20 02:40:00,
2013-02-19 21:50:00,34.9,5.0,29.82,West,271,3.0,3.0,28,0.00,,,0.30,Wunderground v.1.15,2013-02-20 02:50:00,
2013-02-19 21:55:00,34.7,4.1,29.82,West,274,3.0,3.0,27,0.00,,,0.30,Wunderground v.1.15,2013-02-20 02:55:00,
2013-02-19 22:05:00,34.4,5.4,29.81,West,273,2.0,2.0,29,0.00,,,0.30,Wunderground v.1.15,2013-02-20 03:05:00,
2013-02-19 22:15:00,34.1,3.5,29.81,West,271,2.0,3.0,27,0.00,,,0.30,Wunderground v.1.15,2013-02-20 03:15:00,
2013-02-19 22:20:00,34.1,5.9,29.82,WSW,251,2.0,3.0,30,0.00,,,0.30,Wunderground v.1.15,2013-02-20 03:20:00,
2013-02-19 22:30:00,33.5,5.3,29.82,West,272,2.0,3.0,30,0.00,,,0.30,Wunderground v.1.15,2013-02-20 03:30:00,
2013-02-19 22:40:00,33.4,3.7,29.81,West,263,1.0,2.0,28,0.00,,,0.30,Wunderground v.1.15,2013-02-20 03:40:00,
2013-02-19 22:50:00,33.4,3.7,29.82,SW,219,2.0,2.0,28,0.00,,,0.30,Wunderground v.1.15,2013-02-20 03:50:00,
2013-02-19 23:00:00,33.4,3.7,29.82,West,269,2.0,3.0,28,0.00,,,0.30,Wunderground v.1.15,2013-02-20 04:00:00,
2013-02-19 23:05:00,33.2,2.8,29.81,West,275,2.0,3.0,27,0.00,,,0.30,Wunderground v.1.15,2013-02-20 04:05:00,
2013-02-19 23:15:00,32.9,4.8,29.81,West,261,1.0,4.0,30,0.00,,,0.30,Wunderground v.1.15,2013-02-20 04:15:00,
2013-02-19 23:20:00,33.1,3.5,29.81,West,263,2.0,2.0,28,0.00,,,0.30,Wunderground v.1.15,2013-02-20 04:20:00,
2013-02-19 23:30:00,32.7,4.6,29.82,West,275,1.0,3.0,30,0.00,,,0.30,Wunderground v.1.15,2013-02-20 04:30:00,
2013-02-19 23:40:00,32.4,5.1,29.83,West,261,2.0,2.0,31,0.00,,,0.30,Wunderground v.1.15,2013-02-20 04:40:00,
2013-02-19 23:50:00,32.1,4.8,29.83,WNW,290,1.0,1.0,31,0.00,,,0.30,Wunderground v.1.15,2013-02-20 04:50:00,
2013-02-19 23:55:00,31.9,6.0,29.83,West,270,1.0,1.0,33,0.00,,,0.30,Wunderground v.1.15,2013-02-20 04:55:00,